Home > Weather > Cheongju > Past weeks

Flag for South Korea Weather for the Past 2 Weeks in Cheongju, South Korea

Now
64 °F

Sunny.


Feels Like: 64 °F
Forecast: 46 / 74 °F
Wind: 10 mph from Southwest

Location: Chongju Ab

Current Time: Apr 29, 2016 at 12:06:09 PM

Latest Report: Apr 29, 2016 at 11:00 AM


Visibility: 10 mi

Pressure: 29.89 "Hg

Humidity: 46%

Dew Point: 43 °F

Location of CheongjuLocation

Historic Weather in Cheongju — Graph

°F

Cheongju Temperature Yesterday

Maximum temperature yesterday: 70 °F (at 5:00 PM)
Minimum temperature yesterday: 50 °F (at 1:00 AM)
Average temperature yesterday: 59 °F

High & Low Weather Summary for the Past Weeks

 TemperatureHumidityPressure
High82 °F (Apr 26, 3:00 PM)100% (Apr 15, 5:00 AM)30.27 "Hg (Apr 15, 5:00 AM)
Low39 °F (Apr 15, 5:00 AM)22% (Apr 23, 8:00 PM)29.18 "Hg (Apr 17, 1:00 AM)
Average58 °F66%29.90 "Hg
* Reported Apr 14 11:00 AM — Apr 29 11:00 AM, Cheongju, Weather by CustomWeather, © 2016

Note: Actual official high and low records may vary slightly from our data, if they occured in-between our weather recording intervals... More about our weather records

Advertising

Cheongju Weather History for the Previous 24 Hours

Scroll right to see more
 ConditionsComfort  
Time TempWeatherWind HumidityBarometerVisibility
11:00 AM
Fri, Apr 29
64 °FSunny.10 mph46%29.89 "Hg10 mi
10:00 AM63 °FSunny.1 mph52%29.89 "Hg10 mi
9:00 AM57 °FSunny.3 mph63%29.89 "Hg10 mi
8:00 AM54 °FSunny.5 mph77%29.89 "Hg10 mi
7:00 AM52 °FThunderstorms. Partly sunny.9 mph62%29.89 "Hg6 mi
6:00 AM50 °FPartly sunny.3 mph88%29.89 "Hg4 mi
5:00 AM48 °FClear.1 mph94%29.86 "Hg5 mi
4:00 AM46 °FClear.3 mph93%29.86 "Hg5 mi
3:00 AM50 °FPassing clouds.2 mph88%29.86 "Hg6 mi
2:00 AM50 °FPassing clouds.2 mph88%29.86 "Hg6 mi
1:00 AM52 °FClear.1 mph77%29.83 "Hg10 mi
12:00 AM52 °FClear.3 mph82%29.83 "Hg10 mi
11:00 PM
Thu, Apr 28
52 °FClear.2 mph88%29.80 "Hg10 mi
10:00 PM55 °FClear.2 mph72%29.80 "Hg10 mi
9:00 PM57 °FPassing clouds.1 mph67%29.77 "HgN/A
8:00 PM59 °FPassing clouds.6 mph55%29.74 "HgN/A
7:00 PM66 °FPartly sunny.5 mph46%29.74 "HgN/A
6:00 PM68 °FSunny.6 mph46%29.71 "Hg10 mi
5:00 PM70 °FSunny.6 mph38%29.71 "Hg10 mi
4:00 PM68 °FSunny.10 mph43%29.71 "Hg10 mi
3:00 PM68 °FSunny.7 mph46%29.71 "Hg10 mi
2:00 PM66 °FSunny.6 mph52%29.71 "Hg10 mi
1:00 PM63 °FSunny.5 mph49%29.74 "Hg10 mi
12:00 PM63 °FSunny.2 mph42%29.74 "Hg10 mi
Weather by CustomWeather, © 2016

See weather overviewHow to use our weather pages